Zurück zum Katalog

QIANFAN-122

AktivKommunikationPO
NORAD 68649·PAYLOAD·🇨🇳 China

Gestartet Apr 7, 2026 von Wenchang Space Launch Site

Loading…

Nächste Überflüge (nächste 24 Stunden)

TLE

AktuellSource: Space-Track

Epoche: Sep 14, 2026, 21:15 UTC

1 68649U 26075P   26257.88600401  .00000072  00000-0  93226-4 0  9997
2 68649  88.9873 311.8386 0002247  88.9919 271.1489 13.51026988 21915

Verfolge QIANFAN-122 in Echtzeit mit AllMySat

Download on the App Store